Location: Newark
(41.0400°S, 62.7845°W)
Time: 03:41:27
(UTC+00:00)

Vanguard 2 Rocket - Pass Details

Date: 07 December 2021
Orbit: 554 x 3325 km, 32.9° (Epoch: 21 January)

Event Time Altitude Azimuth Distance (km) Brightness Sun altitude
Rises 09:28:13 0° 291° (WNW) 7,315 10.8 8.5°
Reaches altitude 10° 09:33:21 10° 294° (WNW) 6,246 10.6 9.4°
Maximum altitude 09:52:12 61° 7° (N) 2,896 9.6 12.8°
Drops below altitude 10° 10:04:21 10° 82° (E) 4,218 11.7 15.0°
Sets 10:07:06 0° 86° (E) 4,903 12.0 15.4°
